Starlink 11526

operational
NORAD ID: 63007 Int'l Des: 2025-032 Owner: SPXS Country: US Constellation: starlink
LEOCIRCULAR

Starlink 11526について

説明を読み込み中...

リアルタイム位置

3D地球を読み込み中...

次回通過

高度履歴

Altitude vs Time

uPlot chart will show altitude changes over time

軌道要素

1 63007U 25032C 25352.97063475 .00316955 00000-0 23523-2 0 9992
2 63007 42.9989 321.4550 0002263 195.2396 164.8404 15.71124808 49521
Epoch: Dec 18, 2025 • Age: 7 hours

現在のステータス

高度 363.8 km
速度 7.69 km/s
衛星直下点 -30.03°S, 92.55°E
打ち上げ日 Feb 15, 2025
運用期間 0.8 years
タイプ internet

技術仕様

分類 Payload
質量 960.00 kg
乾燥質量 910.00 kg
総質量 960.00 kg
長さ 0.30 m
直径 4.10 m
スパン 29.00 m
形状 Box + pan
製造者 SPXS
バスタイプ Starlink V2MD
フェーズステータス In Orbit
所有者/国 SPXS/US

大規模コンステレーション

Loading constellations...